This is the latest recevied weather packets stored in our database for station/object SP6PWT-13. If no packets are shown the sender has not sent any weather packets the latest 1 day(s).
| Time | Temp. | Humidity | Pressure | Rain* | Wind** | Luminosity | Snow |
|---|---|---|---|---|---|---|---|
| 1778011319 | 18.33° C | 70% | 989.3 hPa | 0 mm | 2.24 m/s, 29° | 0 W/m² | - |
| 1778011019 | 18.33° C | 70% | 989.2 hPa | 0 mm | 2.24 m/s, 33° | 0 W/m² | - |
| 1778010719 | 18.33° C | 69% | 989.2 hPa | 0 mm | 5.36 m/s, 34° | 0 W/m² | - |
| 1778010419 | 18.33° C | 70% | 989.2 hPa | 0 mm | 4.47 m/s, 27° | 0 W/m² | - |
| 1778010118 | 18.33° C | 70% | 989.3 hPa | 0 mm | 2.68 m/s, 29° | 0 W/m² | - |
| 1778009817 | 18.89° C | 70% | 989.2 hPa | 0 mm | 3.13 m/s, 13° | 0 W/m² | - |
| 1778009516 | 18.89° C | 70% | 989.4 hPa | 0 mm | 4.47 m/s, 18° | 0 W/m² | - |
| 1778009216 | 18.89° C | 70% | 989.4 hPa | 0 mm | 3.58 m/s, 349° | 0 W/m² | - |
| 1778008916 | 18.89° C | 70% | 989.4 hPa | 0 mm | 3.58 m/s, 85° | 0 W/m² | - |
| 1778008615 | 18.89° C | 70% | 989.4 hPa | 0 mm | 4.47 m/s, 16° | 0 W/m² | - |
| 1778008315 | 18.89° C | 70% | 989.5 hPa | 0 mm | 4.02 m/s, 15° | 0 W/m² | - |
| 1778008015 | 18.89° C | 70% | 989.5 hPa | 0 mm | 4.02 m/s, 13° | 0 W/m² | - |
| 1778007714 | 19.44° C | 70% | 989.5 hPa | 0 mm | 4.02 m/s, 27° | 0 W/m² | - |
| 1778007414 | 19.44° C | 69% | 989.7 hPa | 0 mm | 4.02 m/s, 352° | 0 W/m² | - |
| 1778007113 | 19.44° C | 69% | 989.5 hPa | 0 mm | 2.68 m/s, 315° | 0 W/m² | - |
| 1778006813 | 20° C | 68% | 989.5 hPa | 0 mm | 4.02 m/s, 0° | 0 W/m² | - |
| 1778006512 | 20° C | 66% | 989.7 hPa | 0 mm | 3.13 m/s, 347° | 0 W/m² | - |
| 1778006210 | 20.56° C | 66% | 989.7 hPa | 0 mm | 1.34 m/s, 284° | 0 W/m² | - |
| 1778005911 | 20.56° C | 65% | 989.7 hPa | 0 mm | 1.79 m/s, 261° | 0 W/m² | - |
| 1778005310 | 20.56° C | 64% | 989.3 hPa | 0 mm | 3.13 m/s, 347° | 0 W/m² | - |
| 1778005010 | 20.56° C | 64% | 989.4 hPa | 0 mm | 3.58 m/s, 1° | 0 W/m² | - |
| 1778004709 | 20.56° C | 64% | 989.3 hPa | 0 mm | 3.58 m/s, 309° | 0 W/m² | - |
| 1778004408 | 21.11° C | 63% | 989.1 hPa | 0 mm | 3.58 m/s, 358° | 1 W/m² | - |
| 1778004108 | 21.11° C | 63% | 989 hPa | 0 mm | 3.13 m/s, 332° | 2 W/m² | - |
| 1778003807 | 21.11° C | 62% | 988.8 hPa | 0 mm | 4.92 m/s, 351° | 3 W/m² | - |
* Rain latest hour (hover to see other rain measurements)
** Current wind speed in m/s (hover to see current wind gust speed)